EIN582 EIDW-LEMG

Flight info

Callsign EIN582
Flight time 2h 56m
Altitude 38000
Route PELIG2J PELIG DCT GOTEM DCT TUVEN/M077F380 DCT TULTA/N0444F380 DCT KOPIP DCT KORUL DCT VES DCT OMESI DCT VETAN DCT ZMR DCT AVILA DCT NVS DCT TLD DCT DOPEN DCT MONTO DCT CRISA N864 VULPE
Aircraft A320/M-SDE3FGHIRWY/LB1

Departure

Time 2026-05-05 11:21
Airport Dublin Airport (EIDW)

Arrival

Time 2026-05-05 14:18
Airport Málaga-Costa del Sol Airport (LEMG)
Time Latitude Longitude Altitude Speed Heading
2026-05-05 10:40 53.42191 -6.23673 211 ft 0 kts 27°
2026-05-05 11:07 53.42172 -6.23689 215 ft 4 kts 19°
2026-05-05 11:08 53.42153 -6.23694 215 ft 4 kts 306°
2026-05-05 11:08 53.42158 -6.23709 214 ft 4 kts 301°
2026-05-05 11:08 53.42172 -6.23747 213 ft 4 kts 302°
2026-05-05 11:08 53.42186 -6.23786 214 ft 4 kts 300°
2026-05-05 11:09 53.42198 -6.23826 211 ft 4 kts 297°
2026-05-05 11:09 53.42201 -6.23836 214 ft 0 kts 297°
2026-05-05 11:12 53.42209 -6.23859 211 ft 4 kts 297°
2026-05-05 11:12 53.42222 -6.23903 216 ft 8 kts 298°
2026-05-05 11:13 53.42257 -6.24029 213 ft 13 kts 282°
2026-05-05 11:13 53.42224 -6.24152 216 ft 11 kts 224°
2026-05-05 11:13 53.42170 -6.24239 215 ft 12 kts 236°
2026-05-05 11:13 53.42162 -6.24380 211 ft 12 kts 275°
2026-05-05 11:14 53.42169 -6.24506 211 ft 10 kts 275°
2026-05-05 11:14 53.42174 -6.24615 211 ft 9 kts 275°
2026-05-05 11:14 53.42182 -6.24704 215 ft 8 kts 293°
2026-05-05 11:14 53.42248 -6.24779 211 ft 14 kts 336°
2026-05-05 11:15 53.42339 -6.24846 216 ft 15 kts 336°
2026-05-05 11:15 53.42441 -6.24921 216 ft 17 kts 336°
2026-05-05 11:15 53.42553 -6.25001 216 ft 18 kts 336°
2026-05-05 11:15 53.42673 -6.25087 215 ft 19 kts 336°
2026-05-05 11:16 53.42773 -6.25168 213 ft 16 kts 320°
2026-05-05 11:16 53.42862 -6.25291 214 ft 18 kts 336°
2026-05-05 11:16 53.42978 -6.25376 214 ft 19 kts 336°
2026-05-05 11:16 53.43100 -6.25468 216 ft 20 kts 335°
2026-05-05 11:17 53.43233 -6.25561 215 ft 21 kts 338°
2026-05-05 11:17 53.43356 -6.25650 213 ft 16 kts 346°
2026-05-05 11:17 53.43405 -6.25523 211 ft 16 kts 93°
2026-05-05 11:17 53.43394 -6.25325 211 ft 18 kts 95°
2026-05-05 11:18 53.43384 -6.25109 215 ft 19 kts 95°
2026-05-05 11:18 53.43370 -6.24877 211 ft 21 kts 96°
2026-05-05 11:18 53.43359 -6.24689 211 ft 9 kts 95°
2026-05-05 11:18 53.43367 -6.24595 217 ft 7 kts 58°
2026-05-05 11:19 53.43402 -6.24563 211 ft 6 kts
2026-05-05 11:19 53.43413 -6.24562 211 ft 0 kts
2026-05-05 11:19 53.43424 -6.24560 217 ft 4 kts
2026-05-05 11:20 53.43471 -6.24549 222 ft 9 kts
2026-05-05 11:20 53.43524 -6.24603 213 ft 11 kts 286°
2026-05-05 11:20 53.43529 -6.24662 214 ft 0 kts 276°
2026-05-05 11:20 53.43545 -6.24938 212 ft 61 kts 275°
2026-05-05 11:21 53.43605 -6.26016 218 ft 124 kts 275°
2026-05-05 11:21 53.43702 -6.27749 253 ft 168 kts 275°
2026-05-05 11:21 53.43769 -6.29795 685 ft 181 kts 279°
2026-05-05 11:21 53.44225 -6.31663 1415 ft 173 kts 316°
2026-05-05 11:22 53.45104 -6.33136 1928 ft 188 kts 317°
2026-05-05 11:22 53.46071 -6.34790 2289 ft 206 kts 316°
2026-05-05 11:22 53.47041 -6.36644 2774 ft 221 kts 311°
2026-05-05 11:22 53.48040 -6.38791 3202 ft 244 kts 309°
2026-05-05 11:23 53.49065 -6.41125 4002 ft 251 kts 308°
2026-05-05 11:23 53.50078 -6.43489 4885 ft 256 kts 307°
2026-05-05 11:23 53.50960 -6.46112 5727 ft 264 kts 287°
2026-05-05 11:23 53.50949 -6.49209 6576 ft 273 kts 258°
2026-05-05 11:24 53.50284 -6.52227 7400 ft 279 kts 246°
2026-05-05 11:24 53.49384 -6.55105 8252 ft 282 kts 243°
2026-05-05 11:24 53.48407 -6.58013 8883 ft 286 kts 243°
2026-05-05 11:24 53.47450 -6.60943 9049 ft 286 kts 244°
2026-05-05 11:25 53.46589 -6.63604 9082 ft 286 kts 239°
2026-05-05 11:25 53.45470 -6.66397 9611 ft 289 kts 239°
2026-05-05 11:25 53.44385 -6.69197 10418 ft 294 kts 239°
2026-05-05 11:25 53.43328 -6.71991 10655 ft 316 kts 239°
2026-05-05 11:26 53.42130 -6.75188 11126 ft 329 kts 239°
2026-05-05 11:26 53.40902 -6.78462 11837 ft 334 kts 239°
2026-05-05 11:26 53.39659 -6.81769 12584 ft 338 kts 239°
2026-05-05 11:26 53.38397 -6.85108 13320 ft 341 kts 239°
2026-05-05 11:27 53.37158 -6.88382 14007 ft 344 kts 239°
2026-05-05 11:27 53.35868 -6.91785 14665 ft 347 kts 239°
2026-05-05 11:27 53.34570 -6.95205 15325 ft 350 kts 239°
2026-05-05 11:27 53.33359 -6.98385 15934 ft 352 kts 239°
2026-05-05 11:28 53.32036 -7.01854 16585 ft 355 kts 239°
2026-05-05 11:28 53.30743 -7.05245 17213 ft 357 kts 239°
2026-05-05 11:28 53.29402 -7.08759 17863 ft 360 kts 239°
2026-05-05 11:28 53.28049 -7.12301 18476 ft 363 kts 239°
2026-05-05 11:29 53.26687 -7.15857 19035 ft 365 kts 239°
2026-05-05 11:29 53.25367 -7.19289 19567 ft 367 kts 239°
2026-05-05 11:29 53.23977 -7.22896 20124 ft 370 kts 239°
2026-05-05 11:29 53.22718 -7.26160 20632 ft 372 kts 238°
2026-05-05 11:30 53.21102 -7.29487 21164 ft 377 kts 226°
2026-05-05 11:30 53.19172 -7.32133 21683 ft 383 kts 215°
2026-05-05 11:30 53.16835 -7.34184 22226 ft 388 kts 204°
2026-05-05 11:30 53.14399 -7.35378 22719 ft 394 kts 194°
2026-05-05 11:31 53.11715 -7.36346 23269 ft 396 kts 195°
2026-05-05 11:31 53.09014 -7.37324 23765 ft 399 kts 195°
2026-05-05 11:31 53.06306 -7.38306 24188 ft 401 kts 195°
2026-05-05 11:31 53.03740 -7.39234 24585 ft 403 kts 195°
2026-05-05 11:32 53.01024 -7.40214 24985 ft 406 kts 194°
2026-05-05 11:32 52.99158 -7.40888 25251 ft 407 kts 194°
2026-05-05 11:32 52.95842 -7.42087 25737 ft 410 kts 194°
2026-05-05 11:32 52.93049 -7.43098 26139 ft 412 kts 194°
2026-05-05 11:33 52.90414 -7.44049 26511 ft 413 kts 194°
2026-05-05 11:33 52.87599 -7.45062 26903 ft 415 kts 194°
2026-05-05 11:33 52.84833 -7.46054 27275 ft 417 kts 194°
2026-05-05 11:33 52.82079 -7.47039 27640 ft 419 kts 194°
2026-05-05 11:34 52.79546 -7.47947 27971 ft 420 kts 194°
2026-05-05 11:34 52.76721 -7.48961 28330 ft 422 kts 194°
2026-05-05 11:34 52.73846 -7.49990 28704 ft 423 kts 194°
2026-05-05 11:34 52.70962 -7.51017 29061 ft 425 kts 194°
2026-05-05 11:35 52.68070 -7.52047 29403 ft 426 kts 194°
2026-05-05 11:35 52.65272 -7.53047 29726 ft 428 kts 194°
2026-05-05 11:35 52.62706 -7.53961 29963 ft 431 kts 194°
2026-05-05 11:35 52.59738 -7.55016 30219 ft 434 kts 194°
2026-05-05 11:36 52.56783 -7.56067 30466 ft 436 kts 194°
2026-05-05 11:36 52.53810 -7.57125 30713 ft 438 kts 194°
2026-05-05 11:36 52.50990 -7.58124 30944 ft 439 kts 194°
2026-05-05 11:36 52.47996 -7.59179 31205 ft 441 kts 194°
2026-05-05 11:37 52.45086 -7.60203 31431 ft 442 kts 194°
2026-05-05 11:37 52.42082 -7.61257 31759 ft 441 kts 194°
2026-05-05 11:37 52.39084 -7.62307 32096 ft 440 kts 194°
2026-05-05 11:37 52.36293 -7.63286 32397 ft 440 kts 194°
2026-05-05 11:38 52.33392 -7.64311 32700 ft 439 kts 194°
2026-05-05 11:38 52.30409 -7.65362 33032 ft 439 kts 194°
2026-05-05 11:38 52.28431 -7.66056 33228 ft 439 kts 194°
2026-05-05 11:38 52.24586 -7.67402 33632 ft 438 kts 194°
2026-05-05 11:39 52.21783 -7.68378 33930 ft 438 kts 193°
2026-05-05 11:39 52.18805 -7.69414 34218 ft 437 kts 194°
2026-05-05 11:39 52.16041 -7.70375 34461 ft 437 kts 193°
2026-05-05 11:39 52.13144 -7.71383 34687 ft 437 kts 193°
2026-05-05 11:40 52.10304 -7.72370 34906 ft 438 kts 193°
2026-05-05 11:40 52.07549 -7.73329 35098 ft 438 kts 194°
2026-05-05 11:40 52.04566 -7.74365 35303 ft 438 kts 193°
2026-05-05 11:40 52.01622 -7.75382 35497 ft 439 kts 193°
2026-05-05 11:41 51.98628 -7.76416 35652 ft 441 kts 193°
2026-05-05 11:41 51.95721 -7.77418 35827 ft 441 kts 193°
2026-05-05 11:41 51.92765 -7.78437 36008 ft 442 kts 193°
2026-05-05 11:41 51.90009 -7.79389 36189 ft 442 kts 193°
2026-05-05 11:42 51.86997 -7.80431 36376 ft 442 kts 193°
2026-05-05 11:42 51.83987 -7.81464 36557 ft 442 kts 193°
2026-05-05 11:42 51.81107 -7.82676 36722 ft 441 kts 199°
2026-05-05 11:42 51.78191 -7.84226 36890 ft 442 kts 199°
2026-05-05 11:43 51.75308 -7.85757 37038 ft 443 kts 199°
2026-05-05 11:43 51.72629 -7.87175 37174 ft 443 kts 199°
2026-05-05 11:43 51.69699 -7.88724 37333 ft 443 kts 199°
2026-05-05 11:43 51.66766 -7.90276 37493 ft 444 kts 199°
2026-05-05 11:44 51.63834 -7.91820 37652 ft 444 kts 199°
2026-05-05 11:44 51.60896 -7.93363 37809 ft 444 kts 199°
2026-05-05 11:44 51.57966 -7.94903 37965 ft 444 kts 199°
2026-05-05 11:44 51.56026 -7.95924 38075 ft 444 kts 199°
2026-05-05 11:45 51.52131 -7.97969 38103 ft 445 kts 199°
2026-05-05 11:45 51.46240 -8.01053 38104 ft 446 kts 199°
2026-05-05 11:46 51.40345 -8.04136 38105 ft 446 kts 199°
2026-05-05 11:46 51.35449 -8.06689 38111 ft 446 kts 199°
2026-05-05 11:47 51.29548 -8.09757 38109 ft 445 kts 199°
2026-05-05 11:47 51.22692 -8.13314 38102 ft 446 kts 199°
2026-05-05 11:48 51.14812 -8.17382 38107 ft 447 kts 199°
2026-05-05 11:48 51.08887 -8.20435 38118 ft 448 kts 199°
2026-05-05 11:49 51.02958 -8.23460 38120 ft 448 kts 196°
2026-05-05 11:49 50.96783 -8.24660 38121 ft 449 kts 177°
2026-05-05 11:50 50.90579 -8.23974 38108 ft 450 kts 176°
2026-05-05 11:50 50.84321 -8.23291 38111 ft 451 kts 176°
2026-05-05 11:51 50.78068 -8.22623 38113 ft 451 kts 176°
2026-05-05 11:51 50.71800 -8.21955 38121 ft 451 kts 176°
2026-05-05 11:52 50.65574 -8.21290 38122 ft 451 kts 176°
2026-05-05 11:52 50.59305 -8.20614 38125 ft 451 kts 176°
2026-05-05 11:53 50.53035 -8.19941 38115 ft 452 kts 176°
2026-05-05 11:53 50.46762 -8.19289 38118 ft 452 kts 176°
2026-05-05 11:54 50.40479 -8.18634 38115 ft 453 kts 176°
2026-05-05 11:54 50.34233 -8.17966 38121 ft 453 kts 176°
2026-05-05 11:55 50.27943 -8.17302 38112 ft 453 kts 176°
2026-05-05 11:55 50.21646 -8.16645 38112 ft 453 kts 176°
2026-05-05 11:56 50.15346 -8.15986 38109 ft 454 kts 176°
2026-05-05 11:56 50.09083 -8.15331 38111 ft 454 kts 176°
2026-05-05 11:57 50.02775 -8.14679 38106 ft 455 kts 176°
2026-05-05 11:57 49.96466 -8.14026 38110 ft 455 kts 176°
2026-05-05 11:58 49.90151 -8.13363 38113 ft 455 kts 176°
2026-05-05 11:58 49.83874 -8.12712 38109 ft 455 kts 176°
2026-05-05 11:59 49.77552 -8.12069 38106 ft 455 kts 176°
2026-05-05 11:59 49.71227 -8.11424 38105 ft 455 kts 176°
2026-05-05 12:00 49.64900 -8.10759 38105 ft 456 kts 176°
2026-05-05 12:00 49.58606 -8.10111 38102 ft 456 kts 176°
2026-05-05 12:01 49.52278 -8.09467 38102 ft 456 kts 176°
2026-05-05 12:01 49.45945 -8.08819 38110 ft 456 kts 176°
2026-05-05 12:02 49.39611 -8.08175 38102 ft 456 kts 176°
2026-05-05 12:02 49.33315 -8.07536 38102 ft 456 kts 176°
2026-05-05 12:03 49.26973 -8.06873 38101 ft 457 kts 176°
2026-05-05 12:03 49.20629 -8.06251 38099 ft 457 kts 176°
2026-05-05 12:04 49.14282 -8.05639 38095 ft 457 kts 176°
2026-05-05 12:04 49.07935 -8.04999 38096 ft 457 kts 176°
2026-05-05 12:05 49.01630 -8.04355 38093 ft 457 kts 176°
2026-05-05 12:05 48.95276 -8.03719 38092 ft 458 kts 176°
2026-05-05 12:06 48.88921 -8.03087 38088 ft 458 kts 176°
2026-05-05 12:06 48.82562 -8.02464 38090 ft 458 kts 176°
2026-05-05 12:07 48.76200 -8.01836 38092 ft 458 kts 176°
2026-05-05 12:07 48.69877 -8.01205 38089 ft 459 kts 176°
2026-05-05 12:08 48.63508 -8.00571 38085 ft 459 kts 176°
2026-05-05 12:08 48.57139 -7.99802 38092 ft 459 kts 170°
2026-05-05 12:09 48.50882 -7.97882 38093 ft 459 kts 168°
2026-05-05 12:09 48.44667 -7.95957 38091 ft 459 kts 168°
2026-05-05 12:10 48.38408 -7.94036 38089 ft 459 kts 168°
2026-05-05 12:10 48.32154 -7.92109 38083 ft 459 kts 168°
2026-05-05 12:11 48.25893 -7.90176 38080 ft 459 kts 168°
2026-05-05 12:11 48.19670 -7.88267 38069 ft 459 kts 168°
2026-05-05 12:12 48.13404 -7.86351 38074 ft 460 kts 168°
2026-05-05 12:12 48.07134 -7.84434 38084 ft 460 kts 168°
2026-05-05 12:13 48.00856 -7.82508 38071 ft 461 kts 168°
2026-05-05 12:13 47.94612 -7.80609 38078 ft 461 kts 168°
2026-05-05 12:14 47.88325 -7.78706 38076 ft 461 kts 168°
2026-05-05 12:14 47.82036 -7.76808 38074 ft 461 kts 168°
2026-05-05 12:15 47.75748 -7.74915 38073 ft 461 kts 168°
2026-05-05 12:15 47.69465 -7.73028 38078 ft 461 kts 168°
2026-05-05 12:16 47.63219 -7.71152 38073 ft 461 kts 168°
2026-05-05 12:16 47.56937 -7.69272 38072 ft 461 kts 168°
2026-05-05 12:17 47.50646 -7.67394 38074 ft 461 kts 168°
2026-05-05 12:17 47.44360 -7.65522 38076 ft 461 kts 168°
2026-05-05 12:18 47.38117 -7.63659 38073 ft 461 kts 168°
2026-05-05 12:18 47.31833 -7.61788 38073 ft 461 kts 168°
2026-05-05 12:19 47.25553 -7.59923 38072 ft 460 kts 168°
2026-05-05 12:19 47.19269 -7.58070 38067 ft 460 kts 168°
2026-05-05 12:20 47.13034 -7.56236 38072 ft 460 kts 168°
2026-05-05 12:20 47.06755 -7.54386 38067 ft 460 kts 168°
2026-05-05 12:21 47.00469 -7.52540 38068 ft 461 kts 168°
2026-05-05 12:21 46.94184 -7.50695 38070 ft 461 kts 168°
2026-05-05 12:22 46.87895 -7.48873 38069 ft 461 kts 169°
2026-05-05 12:22 46.81646 -7.47081 38070 ft 461 kts 169°
2026-05-05 12:23 46.75351 -7.45279 38065 ft 461 kts 169°
2026-05-05 12:23 46.69055 -7.43476 38071 ft 461 kts 169°
2026-05-05 12:24 46.62757 -7.41662 38072 ft 461 kts 169°
2026-05-05 12:24 46.56507 -7.39861 38068 ft 461 kts 169°
2026-05-05 12:25 46.50210 -7.38064 38067 ft 461 kts 169°
2026-05-05 12:25 46.43919 -7.36288 38066 ft 461 kts 169°
2026-05-05 12:26 46.37628 -7.34509 38059 ft 460 kts 169°
2026-05-05 12:26 46.31381 -7.32738 38061 ft 460 kts 169°
2026-05-05 12:27 46.25095 -7.30954 38058 ft 461 kts 169°
2026-05-05 12:27 46.18803 -7.29177 38063 ft 461 kts 169°
2026-05-05 12:28 46.12503 -7.27399 38065 ft 461 kts 169°
2026-05-05 12:28 46.06209 -7.25630 38070 ft 461 kts 169°
2026-05-05 12:29 45.99952 -7.23870 38070 ft 461 kts 169°
2026-05-05 12:29 45.93660 -7.22114 38063 ft 461 kts 169°
2026-05-05 12:30 45.87372 -7.20367 38061 ft 460 kts 169°
2026-05-05 12:30 45.81086 -7.18621 38061 ft 460 kts 169°
2026-05-05 12:31 45.74843 -7.16887 38058 ft 460 kts 169°
2026-05-05 12:31 45.68563 -7.15139 38052 ft 460 kts 169°
2026-05-05 12:32 45.62287 -7.13398 38057 ft 460 kts 169°
2026-05-05 12:32 45.55996 -7.11684 38057 ft 460 kts 169°
2026-05-05 12:33 45.49746 -7.09966 38054 ft 460 kts 169°
2026-05-05 12:33 45.43452 -7.08231 38058 ft 461 kts 169°
2026-05-05 12:34 45.37156 -7.06507 38059 ft 461 kts 169°
2026-05-05 12:34 45.30859 -7.04787 38057 ft 461 kts 170°
2026-05-05 12:35 45.24606 -7.03085 38057 ft 460 kts 170°
2026-05-05 12:35 45.18320 -7.01371 38054 ft 460 kts 170°
2026-05-05 12:36 45.12019 -6.99666 38041 ft 460 kts 170°
2026-05-05 12:36 45.05725 -6.97966 38046 ft 461 kts 170°
2026-05-05 12:37 44.99432 -6.96263 38048 ft 461 kts 170°
2026-05-05 12:37 44.93167 -6.94575 38048 ft 461 kts 170°
2026-05-05 12:38 44.86866 -6.92882 38048 ft 461 kts 170°
2026-05-05 12:38 44.80803 -6.90019 38050 ft 462 kts 153°
2026-05-05 12:39 44.75102 -6.85833 38044 ft 462 kts 153°
2026-05-05 12:39 44.69436 -6.81693 38058 ft 462 kts 153°
2026-05-05 12:40 44.63727 -6.77536 38060 ft 462 kts 153°
2026-05-05 12:40 44.58018 -6.73398 38058 ft 462 kts 153°
2026-05-05 12:41 44.52312 -6.69267 38058 ft 461 kts 153°
2026-05-05 12:41 44.46647 -6.65167 38053 ft 461 kts 153°
2026-05-05 12:42 44.40940 -6.61056 38042 ft 461 kts 154°
2026-05-05 12:42 44.35229 -6.56953 38038 ft 462 kts 154°
2026-05-05 12:43 44.29512 -6.52853 38036 ft 462 kts 154°
2026-05-05 12:43 44.23788 -6.48760 38037 ft 462 kts 154°
2026-05-05 12:44 44.18095 -6.44693 38048 ft 463 kts 154°
2026-05-05 12:44 44.12368 -6.40607 38054 ft 463 kts 154°
2026-05-05 12:45 44.06634 -6.36536 38049 ft 462 kts 154°
2026-05-05 12:45 44.00906 -6.32466 38044 ft 463 kts 154°
2026-05-05 12:46 43.95205 -6.28429 38041 ft 463 kts 154°
2026-05-05 12:46 43.89456 -6.24383 38043 ft 463 kts 154°
2026-05-05 12:47 43.83710 -6.20338 38033 ft 464 kts 154°
2026-05-05 12:47 43.77957 -6.16289 38038 ft 464 kts 154°
2026-05-05 12:48 43.72242 -6.12273 38034 ft 464 kts 154°
2026-05-05 12:48 43.66480 -6.08244 38025 ft 464 kts 154°
2026-05-05 12:49 43.60726 -6.04208 38036 ft 464 kts 155°
2026-05-05 12:49 43.54815 -6.00751 38038 ft 460 kts 168°
2026-05-05 12:50 43.48578 -5.99387 38040 ft 457 kts 175°
2026-05-05 12:50 43.42273 -5.98215 38033 ft 457 kts 174°
2026-05-05 12:51 43.35968 -5.97019 38038 ft 457 kts 174°
2026-05-05 12:51 43.29900 -5.95882 38040 ft 457 kts 174°
2026-05-05 12:52 43.23631 -5.94725 38019 ft 457 kts 175°
2026-05-05 12:52 43.17322 -5.93571 38022 ft 457 kts 175°
2026-05-05 12:53 43.12040 -5.92597 38029 ft 458 kts 175°
2026-05-05 12:53 43.05718 -5.91422 38013 ft 458 kts 175°
2026-05-05 12:54 42.96328 -5.89690 38015 ft 458 kts 175°
2026-05-05 12:55 42.90553 -5.88633 38002 ft 458 kts 175°
2026-05-05 12:55 42.84299 -5.87492 37990 ft 458 kts 175°
2026-05-05 12:56 42.78190 -5.86370 38000 ft 458 kts 175°
2026-05-05 12:56 42.71919 -5.85219 38006 ft 458 kts 175°
2026-05-05 12:57 42.66028 -5.84149 38011 ft 458 kts 175°
2026-05-05 12:57 42.59929 -5.83039 38014 ft 458 kts 175°
2026-05-05 12:58 42.53611 -5.81899 38014 ft 458 kts 175°
2026-05-05 12:58 42.47395 -5.80777 38012 ft 458 kts 175°
2026-05-05 12:59 42.41969 -5.79792 38002 ft 457 kts 175°
2026-05-05 12:59 42.35822 -5.78689 38003 ft 457 kts 176°
2026-05-05 13:00 42.26668 -5.77052 37999 ft 457 kts 176°
2026-05-05 13:01 42.14639 -5.74887 37996 ft 458 kts 176°
2026-05-05 13:01 42.08526 -5.73786 38003 ft 458 kts 176°
2026-05-05 13:02 42.02640 -5.72726 37991 ft 457 kts 176°
2026-05-05 13:02 41.96333 -5.71599 38002 ft 457 kts 176°
2026-05-05 13:03 41.90376 -5.70549 38008 ft 457 kts 176°
2026-05-05 13:03 41.84123 -5.69447 38008 ft 456 kts 176°
2026-05-05 13:04 41.77837 -5.68334 38015 ft 455 kts 176°
2026-05-05 13:04 41.71713 -5.67253 38018 ft 455 kts 176°
2026-05-05 13:05 41.65489 -5.66152 38013 ft 454 kts 176°
2026-05-05 13:05 41.59227 -5.65051 38003 ft 454 kts 176°
2026-05-05 13:06 41.53253 -5.62790 38012 ft 462 kts 157°
2026-05-05 13:06 41.50478 -5.60603 38011 ft 466 kts 146°
2026-05-05 13:06 41.47994 -5.57812 38009 ft 468 kts 140°
2026-05-05 13:07 41.43193 -5.51928 38005 ft 469 kts 140°
2026-05-05 13:07 41.38421 -5.46105 37990 ft 469 kts 140°
2026-05-05 13:08 41.33650 -5.40292 37991 ft 470 kts 140°
2026-05-05 13:08 41.28988 -5.34621 37997 ft 470 kts 140°
2026-05-05 13:09 41.24157 -5.28769 38020 ft 470 kts 141°
2026-05-05 13:09 41.19639 -5.23295 37999 ft 469 kts 141°
2026-05-05 13:10 41.14846 -5.17502 38006 ft 469 kts 141°
2026-05-05 13:10 41.10086 -5.11776 38010 ft 470 kts 141°
2026-05-05 13:11 41.05340 -5.06069 38011 ft 470 kts 141°
2026-05-05 13:11 41.00705 -5.00494 37987 ft 470 kts 141°
2026-05-05 13:12 40.95859 -4.94684 37994 ft 470 kts 141°
2026-05-05 13:12 40.91056 -4.88937 38003 ft 470 kts 142°
2026-05-05 13:13 40.86196 -4.83141 38006 ft 470 kts 142°
2026-05-05 13:13 40.81483 -4.77536 38008 ft 470 kts 142°
2026-05-05 13:14 40.76624 -4.71754 37985 ft 470 kts 142°
2026-05-05 13:14 40.71829 -4.66058 37992 ft 470 kts 142°
2026-05-05 13:15 40.67201 -4.60586 37994 ft 470 kts 142°
2026-05-05 13:15 40.62499 -4.55050 38000 ft 470 kts 142°
2026-05-05 13:16 40.57640 -4.49319 38008 ft 468 kts 142°
2026-05-05 13:16 40.52799 -4.43601 38008 ft 467 kts 142°
2026-05-05 13:17 40.48365 -4.38396 37999 ft 467 kts 143°
2026-05-05 13:17 40.43554 -4.32771 37993 ft 467 kts 143°
2026-05-05 13:18 40.38497 -4.28354 37945 ft 452 kts 163°
2026-05-05 13:18 40.35653 -4.27122 37951 ft 444 kts 174°
2026-05-05 13:18 40.32629 -4.26540 37952 ft 436 kts 184°
2026-05-05 13:19 40.27153 -4.27088 37959 ft 426 kts 195°
2026-05-05 13:19 40.21433 -4.28344 37964 ft 427 kts 195°
2026-05-05 13:20 40.15673 -4.29614 37943 ft 427 kts 196°
2026-05-05 13:20 40.10530 -4.30753 37969 ft 427 kts 196°
2026-05-05 13:21 40.04710 -4.32035 37982 ft 427 kts 195°
2026-05-05 13:21 39.98866 -4.33312 37991 ft 427 kts 196°
2026-05-05 13:22 39.93531 -4.34477 37964 ft 427 kts 196°
2026-05-05 13:22 39.87688 -4.35735 37994 ft 425 kts 196°
2026-05-05 13:23 39.81892 -4.36978 37996 ft 424 kts 196°
2026-05-05 13:23 39.76309 -4.38180 38003 ft 423 kts 196°
2026-05-05 13:24 39.70499 -4.39431 37979 ft 423 kts 197°
2026-05-05 13:24 39.64706 -4.40661 38000 ft 421 kts 197°
2026-05-05 13:25 39.58940 -4.41885 38001 ft 420 kts 197°
2026-05-05 13:25 39.53224 -4.43104 38006 ft 418 kts 196°
2026-05-05 13:26 39.47478 -4.44333 37979 ft 418 kts 197°
2026-05-05 13:26 39.41768 -4.45547 38001 ft 416 kts 197°
2026-05-05 13:27 39.36062 -4.46753 38011 ft 415 kts 197°
2026-05-05 13:27 39.30416 -4.47951 38010 ft 414 kts 197°
2026-05-05 13:28 39.24762 -4.49143 37982 ft 413 kts 197°
2026-05-05 13:28 39.19087 -4.50338 38002 ft 412 kts 197°
2026-05-05 13:29 39.13428 -4.51527 37995 ft 412 kts 197°
2026-05-05 13:29 39.07834 -4.52699 37997 ft 411 kts 197°
2026-05-05 13:30 39.02189 -4.53886 37950 ft 411 kts 198°
2026-05-05 13:30 38.96538 -4.55084 37961 ft 412 kts 198°
2026-05-05 13:31 38.90877 -4.56273 37969 ft 412 kts 198°
2026-05-05 13:31 38.85248 -4.57442 37973 ft 413 kts 198°
2026-05-05 13:32 38.82407 -4.58032 37719 ft 414 kts 198°
2026-05-05 13:32 38.79567 -4.58617 37420 ft 413 kts 198°
2026-05-05 13:32 38.76726 -4.59200 37153 ft 413 kts 198°
2026-05-05 13:32 38.73906 -4.59781 36890 ft 412 kts 198°
2026-05-05 13:33 38.71077 -4.60370 36627 ft 412 kts 198°
2026-05-05 13:33 38.68251 -4.60960 36373 ft 411 kts 198°
2026-05-05 13:33 38.65465 -4.61536 36113 ft 410 kts 198°
2026-05-05 13:33 38.62653 -4.62117 35860 ft 408 kts 199°
2026-05-05 13:34 38.59955 -4.62675 35631 ft 406 kts 199°
2026-05-05 13:34 38.57177 -4.63248 35377 ft 403 kts 199°
2026-05-05 13:34 38.54432 -4.63813 35078 ft 400 kts 199°
2026-05-05 13:34 38.51692 -4.64377 34835 ft 397 kts 199°
2026-05-05 13:35 38.48972 -4.64940 34593 ft 395 kts 199°
2026-05-05 13:35 38.46268 -4.65501 34347 ft 393 kts 199°
2026-05-05 13:35 38.43594 -4.66055 34118 ft 390 kts 199°
2026-05-05 13:35 38.40957 -4.66597 33877 ft 388 kts 199°
2026-05-05 13:36 38.38298 -4.67141 33596 ft 386 kts 199°
2026-05-05 13:36 38.35652 -4.67684 33318 ft 384 kts 199°
2026-05-05 13:36 38.33016 -4.68228 33052 ft 383 kts 199°
2026-05-05 13:36 38.30390 -4.68769 32787 ft 382 kts 199°
2026-05-05 13:37 38.27775 -4.69307 32525 ft 380 kts 199°
2026-05-05 13:37 38.25168 -4.69843 32265 ft 379 kts 199°
2026-05-05 13:37 38.22570 -4.70375 32007 ft 378 kts 199°
2026-05-05 13:37 38.20044 -4.70891 31758 ft 376 kts 199°
2026-05-05 13:38 38.17463 -4.71420 31502 ft 375 kts 200°
2026-05-05 13:38 38.14890 -4.71950 31252 ft 374 kts 200°
2026-05-05 13:38 38.12324 -4.72476 31003 ft 373 kts 199°
2026-05-05 13:38 38.09765 -4.72998 30762 ft 372 kts 200°
2026-05-05 13:39 38.07223 -4.73516 30488 ft 370 kts 199°
2026-05-05 13:39 38.04678 -4.74033 30254 ft 369 kts 199°
2026-05-05 13:39 38.02189 -4.74538 30004 ft 368 kts 199°
2026-05-05 13:39 37.99685 -4.75045 29716 ft 364 kts 199°
2026-05-05 13:40 37.97233 -4.75538 29314 ft 360 kts 199°
2026-05-05 13:40 37.94778 -4.76035 28899 ft 355 kts 199°
2026-05-05 13:40 37.92354 -4.76530 28506 ft 351 kts 199°
2026-05-05 13:40 37.89959 -4.77021 28116 ft 347 kts 199°
2026-05-05 13:41 37.87601 -4.77502 27716 ft 343 kts 199°
2026-05-05 13:41 37.85304 -4.77972 27301 ft 348 kts 198°
2026-05-05 13:41 37.82904 -4.78532 26935 ft 349 kts 205°
2026-05-05 13:41 37.80710 -4.79699 26582 ft 342 kts 211°
2026-05-05 13:42 37.78465 -4.80685 26232 ft 349 kts 204°
2026-05-05 13:42 37.76245 -4.81796 25880 ft 338 kts 217°
2026-05-05 13:42 37.74443 -4.83603 25537 ft 326 kts 233°
2026-05-05 13:42 37.73048 -4.85846 25199 ft 324 kts 237°
2026-05-05 13:43 37.71697 -4.88110 24866 ft 324 kts 237°
2026-05-05 13:43 37.70345 -4.90385 24534 ft 324 kts 237°
2026-05-05 13:43 37.69028 -4.92608 24214 ft 324 kts 237°
2026-05-05 13:43 37.67683 -4.94879 23892 ft 323 kts 237°
2026-05-05 13:44 37.66336 -4.97155 23560 ft 324 kts 237°
2026-05-05 13:44 37.65022 -4.99373 23192 ft 324 kts 237°
2026-05-05 13:44 37.63658 -5.01588 22815 ft 325 kts 232°
2026-05-05 13:44 37.61978 -5.03507 22438 ft 328 kts 220°
2026-05-05 13:45 37.60016 -5.05003 22054 ft 331 kts 214°
2026-05-05 13:45 37.58004 -5.06400 21688 ft 329 kts 214°
2026-05-05 13:45 37.56009 -5.07800 21326 ft 328 kts 214°
2026-05-05 13:45 37.54262 -5.09033 21004 ft 326 kts 214°
2026-05-05 13:46 37.52209 -5.10283 20655 ft 330 kts 205°
2026-05-05 13:46 37.50027 -5.10994 20321 ft 335 kts 194°
2026-05-05 13:46 37.47688 -5.11137 19975 ft 339 kts 185°
2026-05-05 13:46 37.45363 -5.11090 19643 ft 338 kts 185°
2026-05-05 13:47 37.43013 -5.11051 19304 ft 337 kts 185°
2026-05-05 13:47 37.40672 -5.11008 18964 ft 336 kts 183°
2026-05-05 13:47 37.38456 -5.10636 18658 ft 342 kts 172°
2026-05-05 13:47 37.36199 -5.09647 18303 ft 346 kts 159°
2026-05-05 13:48 37.34159 -5.08199 17954 ft 347 kts 153°
2026-05-05 13:48 37.32079 -5.06645 17581 ft 345 kts 154°
2026-05-05 13:48 37.30047 -5.05136 17222 ft 343 kts 154°
2026-05-05 13:48 37.27970 -5.03703 16857 ft 338 kts 161°
2026-05-05 13:49 37.25771 -5.02776 16493 ft 330 kts 172°
2026-05-05 13:49 37.23527 -5.02407 16140 ft 323 kts 184°
2026-05-05 13:49 37.21289 -5.02380 15795 ft 320 kts 185°
2026-05-05 13:49 37.19065 -5.02351 15448 ft 319 kts 184°
2026-05-05 13:50 37.16852 -5.02317 15106 ft 318 kts 184°
2026-05-05 13:50 37.14710 -5.02282 14778 ft 316 kts 184°
2026-05-05 13:50 37.12543 -5.02246 14442 ft 315 kts 184°
2026-05-05 13:50 37.10358 -5.02210 14111 ft 313 kts 184°
2026-05-05 13:51 37.08193 -5.02175 13778 ft 311 kts 184°
2026-05-05 13:51 37.06036 -5.02146 13414 ft 310 kts 184°
2026-05-05 13:51 37.03893 -5.02116 13150 ft 307 kts 184°
2026-05-05 13:51 37.01765 -5.02085 12987 ft 305 kts 184°
2026-05-05 13:52 36.99641 -5.02056 12993 ft 305 kts 184°
2026-05-05 13:52 36.97519 -5.02028 12997 ft 306 kts 184°
2026-05-05 13:52 36.95421 -5.01917 12995 ft 309 kts 176°
2026-05-05 13:52 36.93336 -5.01210 12987 ft 315 kts 161°
2026-05-05 13:53 36.91429 -4.99826 12992 ft 321 kts 145°
2026-05-05 13:53 36.89798 -4.97903 12995 ft 324 kts 137°
2026-05-05 13:53 36.88219 -4.95897 12981 ft 324 kts 137°
2026-05-05 13:53 36.86668 -4.93933 12994 ft 324 kts 138°
2026-05-05 13:54 36.85080 -4.91929 12747 ft 324 kts 138°
2026-05-05 13:54 36.83500 -4.89938 12494 ft 322 kts 137°
2026-05-05 13:54 36.81927 -4.87961 12239 ft 320 kts 138°
2026-05-05 13:54 36.80466 -4.86124 12000 ft 318 kts 137°
2026-05-05 13:55 36.78910 -4.84236 11750 ft 315 kts 139°
2026-05-05 13:55 36.77305 -4.82389 11503 ft 314 kts 140°
2026-05-05 13:55 36.75727 -4.80621 11264 ft 313 kts 141°
2026-05-05 13:55 36.74109 -4.78817 11020 ft 311 kts 141°
2026-05-05 13:56 36.72500 -4.77020 10774 ft 310 kts 141°
2026-05-05 13:56 36.70899 -4.75222 10533 ft 309 kts 140°
2026-05-05 13:56 36.69308 -4.73422 10290 ft 308 kts 140°
2026-05-05 13:56 36.67803 -4.71716 10072 ft 307 kts 140°
2026-05-05 13:57 36.66241 -4.69943 9871 ft 299 kts 140°
2026-05-05 13:57 36.64728 -4.68226 9735 ft 290 kts 140°
2026-05-05 13:57 36.63347 -4.66659 9602 ft 284 kts 140°
2026-05-05 13:57 36.61891 -4.65016 9476 ft 282 kts 140°
2026-05-05 13:58 36.60439 -4.63381 9357 ft 281 kts 140°
2026-05-05 13:58 36.59054 -4.61822 9221 ft 279 kts 140°
2026-05-05 13:58 36.57611 -4.60200 9095 ft 280 kts 140°
2026-05-05 13:58 36.56221 -4.58635 8975 ft 279 kts 140°
2026-05-05 13:59 36.53589 -4.55189 8727 ft 271 kts 122°
2026-05-05 13:59 36.52830 -4.53061 8595 ft 271 kts 109°
2026-05-05 14:00 36.51626 -4.48644 8343 ft 274 kts 109°
2026-05-05 14:00 36.51217 -4.47167 8259 ft 272 kts 109°
2026-05-05 14:00 36.50395 -4.44198 8096 ft 270 kts 109°
2026-05-05 14:00 36.49784 -4.41998 7977 ft 269 kts 109°
2026-05-05 14:01 36.49034 -4.39908 7979 ft 269 kts 123°
2026-05-05 14:01 36.47880 -4.38090 7984 ft 268 kts 134°
2026-05-05 14:01 36.46700 -4.36466 7990 ft 270 kts 134°
2026-05-05 14:01 36.45421 -4.34694 7988 ft 263 kts 133°
2026-05-05 14:02 36.44231 -4.33035 7871 ft 252 kts 133°
2026-05-05 14:02 36.43064 -4.31413 7742 ft 251 kts 133°
2026-05-05 14:02 36.41903 -4.29799 7611 ft 249 kts 134°
2026-05-05 14:02 36.40758 -4.28208 7476 ft 246 kts 134°
2026-05-05 14:03 36.39637 -4.26648 7359 ft 246 kts 135°
2026-05-05 14:03 36.38491 -4.25059 7237 ft 248 kts 135°
2026-05-05 14:03 36.37342 -4.23466 7118 ft 247 kts 134°
2026-05-05 14:03 36.36274 -4.21983 7010 ft 247 kts 135°
2026-05-05 14:04 36.35125 -4.20389 6895 ft 248 kts 135°
2026-05-05 14:04 36.33976 -4.18798 6774 ft 247 kts 135°
2026-05-05 14:04 36.32832 -4.17216 6661 ft 246 kts 134°
2026-05-05 14:04 36.31697 -4.15648 6600 ft 245 kts 135°
2026-05-05 14:05 36.30554 -4.14072 6466 ft 246 kts 135°
2026-05-05 14:05 36.29434 -4.12528 6307 ft 244 kts 135°
2026-05-05 14:05 36.28498 -4.10792 6125 ft 243 kts 110°
2026-05-05 14:05 36.28270 -4.08741 6021 ft 242 kts 81°
2026-05-05 14:06 36.28792 -4.06793 5957 ft 238 kts 52°
2026-05-05 14:06 36.29923 -4.05369 5906 ft 229 kts 27°
2026-05-05 14:06 36.31379 -4.04703 5861 ft 220 kts
2026-05-05 14:06 36.32863 -4.04838 5809 ft 212 kts 338°
2026-05-05 14:07 36.34155 -4.05643 5762 ft 206 kts 323°
2026-05-05 14:07 36.35362 -4.06615 5711 ft 208 kts 324°
2026-05-05 14:07 36.36559 -4.07572 5553 ft 206 kts 324°
2026-05-05 14:07 36.37723 -4.08594 5202 ft 206 kts 317°
2026-05-05 14:08 36.38709 -4.09885 4835 ft 207 kts 311°
2026-05-05 14:08 36.39660 -4.11206 4562 ft 203 kts 312°
2026-05-05 14:08 36.40596 -4.12502 4295 ft 199 kts 312°
2026-05-05 14:08 36.41522 -4.13782 3948 ft 200 kts 312°
2026-05-05 14:09 36.42458 -4.15074 3590 ft 202 kts 311°
2026-05-05 14:09 36.43386 -4.16360 3372 ft 197 kts 311°
2026-05-05 14:09 36.44280 -4.17597 3095 ft 194 kts 311°
2026-05-05 14:09 36.45179 -4.18843 2979 ft 195 kts 311°
2026-05-05 14:10 36.46081 -4.20093 2983 ft 196 kts 311°
2026-05-05 14:10 36.47002 -4.21371 2986 ft 199 kts 311°
2026-05-05 14:10 36.47917 -4.22640 2978 ft 195 kts 310°
2026-05-05 14:10 36.48826 -4.23901 2979 ft 197 kts 311°
2026-05-05 14:11 36.49736 -4.25164 2734 ft 196 kts 310°
2026-05-05 14:11 36.50648 -4.26430 2363 ft 198 kts 310°
2026-05-05 14:11 36.51557 -4.27694 2038 ft 197 kts 308°
2026-05-05 14:11 36.52459 -4.28945 1980 ft 194 kts 307°
2026-05-05 14:12 36.53358 -4.30196 1976 ft 191 kts 308°
2026-05-05 14:12 36.54212 -4.31381 1998 ft 176 kts 308°
2026-05-05 14:12 36.54985 -4.32455 1988 ft 158 kts 306°
2026-05-05 14:12 36.55677 -4.33416 1969 ft 141 kts 305°
2026-05-05 14:13 36.56313 -4.34302 1952 ft 136 kts 306°
2026-05-05 14:13 36.56933 -4.35168 1951 ft 133 kts 307°
2026-05-05 14:13 36.57549 -4.36028 1953 ft 132 kts 306°
2026-05-05 14:13 36.58159 -4.36878 1958 ft 131 kts 305°
2026-05-05 14:14 36.58762 -4.37720 1953 ft 133 kts 307°
2026-05-05 14:14 36.59373 -4.38571 1955 ft 131 kts 306°
2026-05-05 14:14 36.59983 -4.39422 1869 ft 132 kts 306°
2026-05-05 14:14 36.60594 -4.40274 1744 ft 131 kts 306°
2026-05-05 14:15 36.61197 -4.41115 1581 ft 130 kts 306°
2026-05-05 14:15 36.61801 -4.41958 1423 ft 131 kts 307°
2026-05-05 14:15 36.62400 -4.42793 1255 ft 128 kts 305°
2026-05-05 14:15 36.62996 -4.43626 1078 ft 129 kts 303°
2026-05-05 14:16 36.63579 -4.44440 916 ft 127 kts 302°
2026-05-05 14:16 36.64162 -4.45254 756 ft 127 kts 304°
2026-05-05 14:16 36.64756 -4.46085 588 ft 130 kts 308°
2026-05-05 14:16 36.65366 -4.46938 423 ft 132 kts 308°
2026-05-05 14:17 36.65975 -4.47788 256 ft 131 kts 310°
2026-05-05 14:17 36.66581 -4.48629 81 ft 130 kts 313°
2026-05-05 14:17 36.67143 -4.49395 48 ft 101 kts 311°
2026-05-05 14:17 36.67507 -4.49914 51 ft 61 kts 309°
2026-05-05 14:18 36.67718 -4.50174 54 ft 34 kts 332°
2026-05-05 14:18 36.67859 -4.50208 47 ft 19 kts 48°
2026-05-05 14:18 36.67809 -4.50072 44 ft 19 kts 131°
2026-05-05 14:18 36.67727 -4.49954 44 ft 18 kts 131°
2026-05-05 14:19 36.67650 -4.49840 43 ft 17 kts 129°
2026-05-05 14:19 36.67576 -4.49734 43 ft 16 kts 131°
2026-05-05 14:19 36.67505 -4.49633 43 ft 15 kts 131°
2026-05-05 14:19 36.67437 -4.49537 42 ft 14 kts 132°
2026-05-05 14:20 36.67372 -4.49448 43 ft 13 kts 132°
2026-05-05 14:20 36.67332 -4.49392 43 ft 13 kts 132°
2026-05-05 14:20 36.67256 -4.49286 42 ft 12 kts 132°
2026-05-05 14:20 36.67202 -4.49211 42 ft 12 kts 132°
2026-05-05 14:21 36.67149 -4.49137 42 ft 11 kts 130°
2026-05-05 14:21 36.67146 -4.49057 42 ft 9 kts 49°
2026-05-05 14:21 36.67206 -4.49038 42 ft 10 kts
2026-05-05 14:21 36.67256 -4.49027 42 ft 6 kts
2026-05-05 14:22 36.67269 -4.49024 42 ft 0 kts